User: anonymous   Login
Location: Unspecified
(0.0000°N, 0.0000°E)
Time: 14:32:52
(UTC+00:00)
Language:

Vanguard 2 - Orbit

View from above orbital plane
View from above orbital plane
View from above satellite
View from above satellite

Ground track
Ground track

The orbit data is extracted from the following two-line orbital elements,

1 00011U 59001A   14297.23166494  .00000686  00000-0  36680-3 0  3007
2 00011 032.8669 237.6032 1472029 130.1549 243.7561 11.84652995371839
Epoch (UTC): 24 October 2014 05:33:35
Eccentricity: 0.1472029
inclination: 32.8669°
perigee height: 554 km
apogee height: 2947 km
right ascension of ascending node: 237.6032°
argument of perigee: 130.1549°
revolutions per day: 11.84652995
mean anomaly at epoch: 243.7561°
orbit number at epoch: 37183

The dashed part of the orbit path shows where the satellite is in the earth's shadow,  

DLR